Voltar ao catálogo

FENGYUN 1C DEB

AtivoSSO
NORAD 30093·DEBRIS·🇨🇳 China

Lançado May 10, 1999 de Taiyuan Satellite Launch Center

Loading…

Próximas Passagens (próximas 24 horas)

TLE

AtualizadoSource: Space-Track

Época: Sep 14, 2026, 05:14 UTC

1 30093U 99025QW  26257.21866201  .00001325  00000-0  38383-3 0  9997
2 30093  98.8375 148.1519 0066981 234.4695 285.6544 14.44956654 27819

Acompanhe FENGYUN 1C DEB em tempo real com AllMySat

Download on the App Store